• In Hungary
  • List of Countries
  • For 7 days
  • Water Temperature
  • Satellite Maps
  • Weather Map
  • News
  • Weather Widgets
  • user-avatar
    Login

    Hourly Weather RabaWyzna

    Today, 13 December, Wednesday

    Time Temperature Precipitation Wind Pressure Humidity
    00:00 +2°C° 0.2 mm 2 mps 711 mmHg 84%
    01:00 0°C° 0 mm 3 mps 711 mmHg 84%
    02:00 0°C° 0.1 mm 3 mps 711 mmHg 84%
    03:00 +1°C° 0.1 mm 2 mps 712 mmHg 84%
    04:00 -1°C° 0.1 mm 2 mps 712 mmHg 85%
    05:00 -1°C° 0 mm 2 mps 712 mmHg 85%
    06:00 -2°C° 0 mm 2 mps 712 mmHg 86%
    07:00 0°C° 0 mm 1 mps 712 mmHg 87%
    08:00 0°C° 0 mm 1 mps 713 mmHg 84%
    09:00 +1°C° 0 mm 1 mps 713 mmHg 81%
    10:00 +2°C° 0 mm 1 mps 713 mmHg 78%
    11:00 +2°C° 0 mm 1 mps 713 mmHg 75%
    12:00 +3°C° 0 mm 1 mps 712 mmHg 72%
    13:00 +3°C° 0 mm 1 mps 712 mmHg 69%
    14:00 +2°C° 0 mm 1 mps 712 mmHg 73%
    15:00 +1°C° 0 mm 1 mps 711 mmHg 78%
    16:00 0°C° 0 mm 1 mps 711 mmHg 82%
    17:00 -1°C° 0 mm 1 mps 710 mmHg 84%
    18:00 -1°C° 0 mm 1 mps 710 mmHg 86%
    19:00 -4°C° 0 mm 2 mps 709 mmHg 87%
    20:00 -4°C° 0 mm 2 mps 709 mmHg 86%
    21:00 -4°C° 0 mm 2 mps 708 mmHg 85%
    22:00 -4°C° 0 mm 2 mps 708 mmHg 83%
    23:00 -4°C° 0 mm 2 mps 707 mmHg 80%

    Tomorrow, 14 December, Thursday

    Time Temperature Precipitation Wind Pressure Humidity
    00:00 -5°C° 0 mm 3 mps 706 mmHg 76%
    01:00 -5°C° 0 mm 3 mps 705 mmHg 73%
    02:00 -4°C° 0 mm 3 mps 705 mmHg 73%
    03:00 -4°C° 0 mm 3 mps 704 mmHg 74%
    04:00 -4°C° 0 mm 3 mps 703 mmHg 75%
    05:00 -3°C° 0 mm 4 mps 703 mmHg 75%
    06:00 -2°C° 0 mm 4 mps 702 mmHg 76%
    07:00 -1°C° 0 mm 5 mps 702 mmHg 76%
    08:00 0°C° 0 mm 5 mps 702 mmHg 75%
    09:00 0°C° 0 mm 5 mps 702 mmHg 75%
    10:00 +1°C° 0 mm 6 mps 702 mmHg 74%
    11:00 +2°C° 0 mm 5 mps 702 mmHg 72%
    12:00 +2°C° 0 mm 5 mps 702 mmHg 71%
    13:00 +3°C° 0 mm 5 mps 702 mmHg 69%
    14:00 +2°C° 0.1 mm 5 mps 702 mmHg 71%
    15:00 +1°C° 0.1 mm 5 mps 702 mmHg 73%
    16:00 0°C° 0.1 mm 5 mps 703 mmHg 75%
    17:00 0°C° 0 mm 4 mps 703 mmHg 76%
    18:00 -1°C° 0 mm 4 mps 703 mmHg 76%
    19:00 -1°C° 0 mm 3 mps 703 mmHg 76%
    20:00 -1°C° 0 mm 3 mps 703 mmHg 77%
    21:00 -1°C° 0 mm 3 mps 703 mmHg 78%
    22:00 -1°C° 0 mm 3 mps 703 mmHg 78%
    23:00 -1°C° 0 mm 3 mps 703 mmHg 79%

    Day after tomorrow, 15 December, Friday

    Time Temperature Precipitation Wind Pressure Humidity
    00:00 -2°C° 0 mm 3 mps 703 mmHg 79%
    01:00 -2°C° 0 mm 3 mps 702 mmHg 80%
    02:00 -2°C° 0.1 mm 3 mps 702 mmHg 79%
    03:00 -1°C° 0.1 mm 3 mps 701 mmHg 78%
    04:00 -1°C° 0.1 mm 3 mps 700 mmHg 77%
    05:00 -1°C° 0.2 mm 3 mps 700 mmHg 77%
    06:00 -1°C° 0.2 mm 3 mps 700 mmHg 77%
    07:00 0°C° 0.2 mm 3 mps 699 mmHg 78%
    08:00 0°C° 0.1 mm 3 mps 699 mmHg 79%
    09:00 +2°C° 0.1 mm 2 mps 699 mmHg 79%
    10:00 +2°C° 0.1 mm 2 mps 699 mmHg 80%
    11:00 +2°C° 0.1 mm 3 mps 699 mmHg 80%
    12:00 +2°C° 0.1 mm 3 mps 700 mmHg 81%
    13:00 +1°C° 0.1 mm 4 mps 700 mmHg 81%
    14:00 +1°C° 0 mm 4 mps 700 mmHg 82%
    15:00 +1°C° 0 mm 3 mps 701 mmHg 83%
    16:00 0°C° 0 mm 3 mps 701 mmHg 84%
    17:00 -1°C° 0 mm 3 mps 702 mmHg 86%
    18:00 -2°C° 0 mm 2 mps 702 mmHg 87%
    19:00 -3°C° 0 mm 2 mps 702 mmHg 88%
    20:00 -2°C° 0 mm 2 mps 702 mmHg 86%
    21:00 -2°C° 0 mm 2 mps 702 mmHg 85%
    22:00 0°C° 0 mm 1 mps 703 mmHg 83%
    23:00 0°C° 0 mm 1 mps 703 mmHg 81%

    16 December, Saturday

    Time Temperature Precipitation Wind Pressure Humidity
    00:00 0°C° 0 mm 1 mps 703 mmHg 80%
    01:00 0°C° 0 mm 1 mps 703 mmHg 78%
    02:00 0°C° 0 mm 1 mps 703 mmHg 78%
    03:00 0°C° 0 mm 1 mps 702 mmHg 77%
    04:00 0°C° 0 mm 1 mps 702 mmHg 77%
    05:00 0°C° 0 mm 1 mps 703 mmHg 77%
    06:00 -1°C° 0 mm 1 mps 703 mmHg 78%
    07:00 -1°C° 0 mm 1 mps 703 mmHg 78%
    08:00 -2°C° 0 mm 2 mps 704 mmHg 77%
    09:00 -1°C° 0 mm 2 mps 704 mmHg 75%
    10:00 +1°C° 0 mm 2 mps 705 mmHg 73%
    11:00 +1°C° 0 mm 2 mps 705 mmHg 73%
    12:00 +2°C° 0 mm 2 mps 705 mmHg 73%
    13:00 +2°C° 0 mm 2 mps 705 mmHg 73%
    14:00 +1°C° 0 mm 2 mps 706 mmHg 77%
    15:00 -1°C° 0 mm 2 mps 706 mmHg 82%
    16:00 -2°C° 0 mm 2 mps 706 mmHg 87%
    17:00 -3°C° 0 mm 2 mps 707 mmHg 87%
    18:00 -3°C° 0 mm 2 mps 707 mmHg 87%
    19:00 -3°C° 0 mm 2 mps 708 mmHg 87%
    20:00 -3°C° 0 mm 2 mps 708 mmHg 87%
    21:00 -3°C° 0 mm 2 mps 709 mmHg 87%
    22:00 -4°C° 0 mm 2 mps 709 mmHg 87%
    23:00 -4°C° 0 mm 2 mps 709 mmHg 87%

    17 December, Sunday

    Time Temperature Precipitation Wind Pressure Humidity
    00:00 -2°C° 0 mm 1 mps 709 mmHg 88%
    01:00 -2°C° 0 mm 1 mps 710 mmHg 88%
    02:00 -2°C° 0 mm 1 mps 710 mmHg 89%
    03:00 -2°C° 0 mm 1 mps 710 mmHg 90%
    04:00 -2°C° 0 mm 1 mps 710 mmHg 90%
    05:00 -2°C° 0 mm 1 mps 710 mmHg 90%
    06:00 -2°C° 0 mm 1 mps 711 mmHg 90%
    07:00 -4°C° 0 mm 2 mps 711 mmHg 90%
    08:00 -3°C° 0 mm 2 mps 711 mmHg 87%
    09:00 -4°C° 0 mm 3 mps 712 mmHg 83%
    10:00 -2°C° 0 mm 3 mps 712 mmHg 80%
    11:00 -2°C° 0.1 mm 3 mps 712 mmHg 80%
    12:00 -2°C° 0.1 mm 3 mps 712 mmHg 80%
    13:00 -2°C° 0.1 mm 3 mps 712 mmHg 79%
    14:00 -2°C° 0.2 mm 3 mps 713 mmHg 83%
    15:00 -4°C° 0.2 mm 3 mps 713 mmHg 86%
    16:00 -4°C° 0.2 mm 3 mps 713 mmHg 89%
    17:00 -3°C° 0.2 mm 2 mps 714 mmHg 90%
    18:00 -3°C° 0.2 mm 2 mps 714 mmHg 90%
    19:00 -3°C° 0.2 mm 2 mps 715 mmHg 91%
    20:00 -3°C° 0.1 mm 2 mps 715 mmHg 92%
    21:00 -4°C° 0.1 mm 2 mps 715 mmHg 92%
    22:00 -4°C° 0.1 mm 2 mps 716 mmHg 92%
    23:00 -4°C° 0.1 mm 2 mps 716 mmHg 92%

    18 December, Monday

    Time Temperature Precipitation Wind Pressure Humidity
    00:00 -4°C° 0.1 mm 2 mps 716 mmHg 91%
    01:00 -4°C° 0.1 mm 2 mps 717 mmHg 91%
    02:00 -4°C° 0.1 mm 2 mps 717 mmHg 90%
    03:00 -4°C° 0.1 mm 2 mps 717 mmHg 89%
    04:00 -4°C° 0.1 mm 2 mps 717 mmHg 89%
    05:00 -5°C° 0 mm 2 mps 717 mmHg 88%
    06:00 -5°C° 0 mm 2 mps 717 mmHg 87%
    07:00 -5°C° 0 mm 2 mps 718 mmHg 86%
    08:00 -5°C° 0 mm 2 mps 718 mmHg 82%
    09:00 -4°C° 0 mm 2 mps 718 mmHg 79%
    10:00 -4°C° 0 mm 2 mps 718 mmHg 75%
    11:00 -3°C° 0 mm 2 mps 718 mmHg 73%
    12:00 -3°C° 0 mm 2 mps 718 mmHg 70%
    13:00 -3°C° 0 mm 2 mps 717 mmHg 67%
    14:00 -4°C° 0 mm 2 mps 717 mmHg 72%
    15:00 -2°C° 0 mm 1 mps 717 mmHg 76%
    16:00 -3°C° 0 mm 1 mps 717 mmHg 81%
    17:00 -4°C° 0 mm 1 mps 717 mmHg 82%
    18:00 -4°C° 0 mm 1 mps 717 mmHg 83%
    19:00 -4°C° 0 mm 1 mps 717 mmHg 84%
    20:00 -6°C° 0 mm 1 mps 717 mmHg 83%
    21:00 -6°C° 0 mm 1 mps 717 mmHg 83%
    22:00 -6°C° 0 mm 1 mps 718 mmHg 83%
    23:00 -6°C° 0 mm 1 mps 718 mmHg 82%
    Show more